[[{"header":{"parameterUnit":"m.s-1","parameterCategory":1,"la1":30.2991,"la2":30.254,"lo1":-89.0895,"lo2":-89.0444,"dy":0.0017,"dx":0.0017,"nx":28,"ny":28,"refTime":"2026-01-04T09:00:00:Z","depth":0,"parameterNumber":2,"parameterNumberName":"U-component_of_WINDS"},"data":[0,0,0,0,0,0,0,0,0,0,0,0,0,0,0,0,0,0,0,0,0,0,0,0,0,0,0,0,0,0,0,0,0,0,0,0,0,0,0,0,0,0,0,0,0,0,0,0,0,0,0,0,0,0,0,0,0,0,-1.7459,-1.7458,0,-1.7331,-1.7329,-1.7328,-1.72,-1.7199,-1.7197,-1.7196,-1.7058,-1.7056,-1.7053,0,0,0,0,0,0,0,0,0,0,0,0,0,-1.7591,-1.7589,-1.746,-1.7458,-1.7456,-1.7331,-1.7329,-1.7327,-1.7201,-1.7199,-1.7197,-1.7195,-1.7058,-1.7056,-1.7053,0,0,0,0,0,0,0,0,0,0,0,0,0,-1.7505,-1.7589,-1.746,-1.7378,-1.737,-1.7331,-1.7329,-1.7327,-1.7201,-1.7199,-1.7196,-1.7194,-1.7059,-1.7056,-1.7053,-1.7083,0,0,-1.7043,-1.7042,0,0,0,0,0,0,0,0,-1.751,-1.75,-1.7392,-1.7384,-1.7374,-1.7279,-1.7325,-1.7245,-1.7202,-1.7265,-1.7196,-1.7193,-1.7133,-1.7124,-1.7105,-1.7076,-1.707,-1.7043,-1.7041,-1.7039,-1.7039,0,0,0,0,0,0,0,-1.7516,-1.7505,-1.7408,-1.739,-1.738,-1.7346,-1.7331,-1.7309,-1.7214,-1.7259,-1.725,-1.7237,-1.7128,-1.7108,-1.71,-1.7068,-1.7043,-1.704,-1.7038,-1.7037,-1.7057,-1.706,0,0,0,0,0,0,-1.7535,-1.7511,-1.7412,-1.7404,-1.7438,-1.7346,-1.7329,-1.7312,-1.7214,-1.7197,-1.7239,-1.7231,-1.7115,-1.7104,-1.7095,-1.7123,-1.7039,-1.7036,-1.7035,-1.7055,-1.7058,-1.706,0,0,0,0,0,0,-1.7539,-1.7528,-1.7418,-1.7455,-1.7439,-1.7346,-1.7328,-1.7311,-1.7291,-1.7199,-1.7181,-1.7237,-1.7112,-1.71,-1.7087,-1.7117,-1.7035,-1.7032,-1.7052,-1.7056,-1.7059,-1.7181,0,0,0,0,0,0,-1.7543,-1.753,-1.7542,-1.7456,-1.7437,-1.7414,-1.733,-1.731,-1.7287,-1.7275,-1.7192,-1.7176,-1.7109,-1.7093,-1.7084,-1.7111,-1.703,-1.7049,-1.7054,-1.7058,-1.7174,-1.7188,-1.72,0,0,0,0,0,-1.7548,-1.758,-1.7543,-1.7532,-1.745,-1.7416,-1.7405,-1.733,-1.729,-1.73,-1.724,-1.7178,-1.7115,-1.7092,-1.7081,-1.7108,-1.7046,-1.7052,-1.7058,-1.7167,-1.7185,-1.72,0,0,0,0,0,0,-1.7668,-1.7567,-1.7525,-1.753,-1.7483,-1.7395,-1.7405,-1.7351,-1.7312,-1.7303,-1.7209,-1.7192,-1.719,-1.7147,-1.7124,-1.7131,-1.7072,-1.7076,-1.7159,-1.7175,-1.7189,-1.7199,-1.7027,0,0,0,0,0,-1.7696,-1.7678,-1.759,-1.7603,-1.7582,-1.7498,-1.748,-1.7427,-1.7373,-1.7352,-1.7291,-1.724,-1.7208,-1.7189,-1.7155,-1.7167,-1.7146,-1.718,-1.7193,-1.7205,-1.7209,-1.7211,-1.7225,-1.7079,-1.7079,-1.7078,0,0,-1.7752,-1.7694,-1.7688,-1.7626,-1.7583,-1.7565,-1.7482,-1.7466,-1.7452,-1.7348,-1.7334,-1.7288,-1.7224,-1.7224,-1.7221,-1.7189,-1.7245,-1.7212,-1.7222,-1.7219,-1.7218,-1.7232,-1.7245,-1.7082,-1.7082,-1.7081,0,0,-1.7844,-1.78,-1.7806,-1.7765,-1.7702,-1.7646,-1.7648,-1.7568,-1.7534,-1.7518,-1.744,-1.7421,-1.7368,-1.7326,-1.7298,-1.7376,-1.7317,-1.7368,-1.7438,-1.7441,-1.7453,-1.7463,-1.749,-1.7501,-1.7372,-1.7372,-1.7372,0,-1.7921,-1.7893,-1.7815,-1.7805,-1.7779,-1.7687,-1.7692,-1.7655,-1.7584,-1.7567,-1.7533,-1.7466,-1.7416,-1.7405,-1.7425,-1.7405,-1.7403,-1.7376,-1.7458,-1.7467,-1.7475,-1.75,-1.751,-1.7379,-1.7378,-1.7377,-1.7377,0,-1.7991,-1.7973,-1.7985,-1.7921,-1.7896,-1.7894,-1.7813,-1.7798,-1.7746,-1.7694,-1.7678,-1.7616,-1.7568,-1.7561,-1.751,-1.7543,-1.7525,-1.7476,-1.7414,-1.7497,-1.7518,-1.7527,-1.7388,-1.7386,-1.7384,-1.7382,0,0,-1.8155,-1.8048,-1.8054,-1.8024,-1.7948,-1.7931,-1.7924,-1.7879,-1.7867,-1.7821,-1.7812,-1.777,-1.7724,-1.7693,-1.7636,-1.7639,-1.7705,-1.7589,-1.7586,-1.7612,-1.7736,-1.7774,-1.7786,-1.7666,-1.7667,-1.7668,-1.7741,0,-1.8234,-1.8218,-1.8148,-1.8152,-1.8134,-1.8046,-1.8039,-1.7991,-1.7942,-1.7918,-1.7862,-1.7835,-1.7777,-1.7757,-1.7756,-1.7697,-1.7728,-1.7691,-1.7654,-1.7654,-1.7673,-1.7798,-1.7837,-1.7909,-1.7749,-1.7751,-1.7752,0,-1.8325,-1.8287,-1.829,-1.8215,-1.8205,-1.8201,-1.8154,-1.8132,-1.8075,-1.8039,-1.8005,-1.7942,-1.7928,-1.7871,-1.7849,-1.7826,-1.7806,-1.7775,-1.7776,-1.7769,-1.7708,-1.7794,-1.793,-1.7941,-1.7765,-1.7764,-1.7763,0,-1.8445,-1.8394,-1.8389,-1.8366,-1.8278,-1.8277,-1.824,-1.8181,-1.8159,-1.8117,-1.8101,-1.8058,-1.8034,-1.8001,-1.7928,-1.7893,-1.7914,-1.7851,-1.7882,-1.7884,-1.789,-1.7891,-1.8025,-1.7879,-1.7879,-1.7879,-1.7878,0,-1.8541,-1.8546,-1.8442,-1.8439,-1.8442,-1.836,-1.8364,-1.8318,-1.8267,-1.8252,-1.8173,-1.816,-1.8065,-1.8041,-1.7983,-1.7973,-1.7963,-1.7932,-1.7917,-1.7939,-1.7943,-1.7925,-1.7918,-1.7881,-1.7881,-1.788,-1.788,0,-1.8674,-1.8605,-1.8594,-1.8513,-1.8492,-1.8498,-1.8427,-1.842,-1.8367,-1.8349,-1.834,-1.8255,-1.8223,-1.8147,-1.8094,-1.8055,-1.806,-1.8032,-1.808,-1.8071,-1.8106,-1.8104,-1.8233,-1.8245,-1.8093,-1.8094,-1.8096,0,-1.874,-1.8742,-1.8662,-1.8648,-1.8615,-1.8592,-1.857,-1.8489,-1.8468,-1.8404,-1.8404,-1.8367,-1.8332,-1.8284,-1.8216,-1.8175,-1.8145,-1.8193,-1.8138,-1.8161,-1.8145,-1.8146,-1.8146,-1.8206,-1.8208,-1.8209,-1.8211,0,-1.8864,-1.883,-1.8802,-1.8762,-1.8738,-1.8701,-1.866,-1.8653,-1.8561,-1.8542,-1.8509,-1.8483,-1.8429,-1.8392,-1.8341,-1.83,-1.824,-1.8229,-1.8234,-1.8256,-1.8284,-1.827,-1.8113,-1.8226,-1.8224,-1.8223,-1.8222,-1.8222,-1.8965,-1.8964,-1.8907,-1.8878,-1.8839,-1.8803,-1.8793,-1.8739,-1.8711,-1.8663,-1.8617,-1.8589,-1.8531,-1.8456,-1.842,-1.8395,-1.8364,-1.8372,-1.8373,-1.8376,-1.8386,-1.8289,-1.8385,-1.8385,-1.8384,-1.8384,-1.8383,0,-1.9086,-1.9045,-1.9019,-1.8966,-1.8943,-1.8891,-1.8843,-1.8826,-1.8804,-1.8756,-1.8724,-1.8686,-1.865,-1.858,-1.8538,-1.8531,-1.8503,-1.8523,-1.8522,-1.8513,-1.8416,-1.8416,-1.8547,-1.8547,-1.8547,-1.8547,-1.8547,-1.8547,-1.9145,-1.9139,-1.9099,-1.9072,-1.9031,-1.9005,-1.8982,-1.8948,-1.8909,-1.8872,-1.8842,-1.8798,-1.8741,-1.8693,-1.8657,-1.8637,-1.8625,-1.8654,-1.8625,-1.8536,-1.852,-1.8506,-1.8505,-1.8652,-1.8652,-1.8724,-1.8725,-1.8725]},{"header":{"parameterUnit":"m.s-1","parameterCategory":1,"la1":30.2991,"la2":30.254,"lo1":-89.0895,"lo2":-89.0444,"dy":0.0017,"dx":0.0017,"nx":28,"ny":28,"refTime":"2026-01-04T09:00:00:Z","depth":0,"parameterNumber":3,"parameterNumberName":"V-component_of_WINDS"},"data":[0,0,0,0,0,0,0,0,0,0,0,0,0,0,0,0,0,0,0,0,0,0,0,0,0,0,0,0,0,0,0,0,0,0,0,0,0,0,0,0,0,0,0,0,0,0,0,0,0,0,0,0,0,0,0,0,0,0,0.15,0.1499,0,0.1382,0.138,0.1379,0.1361,0.1362,0.1363,0.1364,0.1236,0.1232,0.1228,0,0,0,0,0,0,0,0,0,0,0,0,0,0.1705,0.1701,0.15,0.1499,0.1497,0.1382,0.138,0.1379,0.1361,0.1362,0.1364,0.1365,0.1238,0.1233,0.1227,0,0,0,0,0,0,0,0,0,0,0,0,0,0.1604,0.17,0.1501,0.1475,0.1471,0.1382,0.138,0.1378,0.1361,0.1362,0.1364,0.1366,0.124,0.1233,0.1227,0.1153,0,0,0.1206,0.1203,0,0,0,0,0,0,0,0,0.161,0.1596,0.148,0.1477,0.1472,0.1388,0.1405,0.1302,0.136,0.1403,0.1364,0.1366,0.1285,0.1275,0.1249,0.1147,0.1141,0.1206,0.1202,0.1199,0.1197,0,0,0,0,0,0,0,0.1617,0.1601,0.1453,0.1478,0.1474,0.1467,0.1454,0.1386,0.1336,0.1399,0.1398,0.1384,0.1283,0.1255,0.1246,0.1139,0.1206,0.12,0.1196,0.1193,0.0969,0.0967,0,0,0,0,0,0,0.1629,0.1607,0.1457,0.145,0.1547,0.1462,0.1448,0.1413,0.1337,0.1327,0.1383,0.1384,0.1266,0.1253,0.1241,0.1149,0.1199,0.1193,0.1189,0.0971,0.0969,0.0966,0,0,0,0,0,0,0.1634,0.1616,0.1462,0.1528,0.1508,0.1457,0.1418,0.141,0.1382,0.1324,0.1315,0.1364,0.1267,0.125,0.1175,0.1144,0.119,0.1184,0.0973,0.097,0.0968,0.0964,0,0,0,0,0,0,0.164,0.1618,0.1591,0.1528,0.1505,0.14,0.1416,0.1407,0.1372,0.1372,0.1304,0.1294,0.1267,0.1185,0.1168,0.1136,0.1178,0.0976,0.0972,0.0968,0.0967,0.0962,0.0957,0,0,0,0,0,0.1647,0.1594,0.159,0.1572,0.147,0.1398,0.1385,0.1356,0.1369,0.1341,0.1303,0.1296,0.115,0.1177,0.1159,0.1123,0.0978,0.0973,0.0969,0.0969,0.0963,0.0957,0,0,0,0,0,0,0.1652,0.1585,0.158,0.1505,0.1458,0.1396,0.1359,0.135,0.1296,0.1298,0.1263,0.1247,0.1174,0.1141,0.1172,0.1047,0.1065,0.1056,0.1071,0.1065,0.106,0.1069,0.1173,0,0,0,0,0,0.1645,0.1595,0.1537,0.1476,0.1453,0.141,0.1378,0.136,0.1308,0.1288,0.1245,0.1193,0.1136,0.1098,0.1042,0.0962,0.0946,0.0928,0.0924,0.092,0.0913,0.0866,0.0857,0.0952,0.0952,0.0952,0,0,0.1629,0.1586,0.1556,0.1477,0.1438,0.1384,0.1393,0.1336,0.1295,0.1278,0.1205,0.1172,0.1112,0.1033,0.0997,0.1004,0.0883,0.0914,0.0912,0.0906,0.0861,0.0852,0.0844,0.0949,0.0949,0.095,0,0,0.1572,0.1535,0.148,0.1442,0.1384,0.1355,0.1342,0.1281,0.1259,0.1185,0.1171,0.112,0.1022,0.098,0.0946,0.0872,0.0863,0.0854,0.0828,0.0784,0.0776,0.0769,0.0742,0.0733,0.0848,0.0848,0.0848,0,0.1559,0.148,0.1452,0.1396,0.1361,0.1345,0.1287,0.125,0.1176,0.1151,0.1161,0.1037,0.0995,0.0906,0.0889,0.0862,0.0843,0.0862,0.078,0.0773,0.0766,0.0739,0.0729,0.0847,0.0847,0.0847,0.0847,0,0.1466,0.1411,0.1373,0.1304,0.1264,0.1207,0.1169,0.1132,0.1117,0.1087,0.101,0.096,0.0893,0.0871,0.0855,0.0779,0.0785,0.0788,0.0804,0.0757,0.0731,0.0721,0.0846,0.0846,0.0846,0.0847,0,0,0.1409,0.1326,0.1312,0.128,0.1215,0.1171,0.1112,0.1049,0.1017,0.0966,0.0914,0.0832,0.0834,0.0794,0.0773,0.0734,0.0678,0.0741,0.0739,0.073,0.0589,0.0587,0.0576,0.0672,0.067,0.0668,0.0594,0,0.1344,0.1242,0.1215,0.1128,0.1075,0.1059,0.1008,0.0961,0.0931,0.088,0.0846,0.0787,0.0795,0.0771,0.0732,0.0693,0.0649,0.0698,0.0621,0.0619,0.0637,0.0563,0.056,0.0493,0.0584,0.0582,0.0581,0,0.1255,0.1204,0.1112,0.1053,0.103,0.0984,0.0923,0.0876,0.0821,0.0802,0.0759,0.0741,0.0677,0.0698,0.0608,0.0642,0.0609,0.0585,0.0581,0.0572,0.0597,0.0551,0.0471,0.046,0.0565,0.0566,0.0567,0,0.1221,0.113,0.1063,0.1036,0.0965,0.0934,0.0902,0.085,0.0813,0.0759,0.0734,0.0673,0.0638,0.059,0.0555,0.0574,0.0467,0.0486,0.0448,0.0448,0.0425,0.0427,0.0338,0.0405,0.0406,0.0406,0.0406,0,0.1151,0.1095,0.1047,0.1005,0.0941,0.091,0.0846,0.0814,0.0767,0.0717,0.0699,0.0652,0.061,0.0556,0.0528,0.0457,0.0442,0.0423,0.0416,0.0424,0.0426,0.0401,0.0404,0.0403,0.0404,0.0404,0.0405,0,0.1103,0.1069,0.0994,0.0934,0.0918,0.0873,0.082,0.0778,0.0747,0.0684,0.0667,0.0618,0.0555,0.0516,0.0434,0.0415,0.0336,0.0331,0.0355,0.0352,0.0316,0.0319,0.0207,0.019,0.0269,0.0269,0.0268,0,0.106,0.1017,0.0953,0.0919,0.0888,0.0834,0.0797,0.0764,0.0725,0.066,0.0625,0.056,0.0507,0.0405,0.036,0.0297,0.029,0.0255,0.028,0.029,0.0288,0.0291,0.0286,0.0251,0.025,0.0249,0.0249,0,0.0988,0.0973,0.0921,0.0863,0.082,0.0772,0.0724,0.0697,0.0656,0.0613,0.0549,0.0507,0.0425,0.036,0.0293,0.0258,0.0245,0.0241,0.0229,0.0236,0.0252,0.0242,0.0343,0.0244,0.0244,0.0245,0.0245,0.0245,0.094,0.09,0.0849,0.0792,0.0753,0.0708,0.0666,0.063,0.0577,0.0509,0.0492,0.0424,0.0368,0.0278,0.0241,0.0186,0.0191,0.0173,0.0168,0.0164,0.0163,0.0262,0.0173,0.0173,0.0174,0.0174,0.0174,0,0.0865,0.0832,0.078,0.0714,0.0668,0.0664,0.061,0.0571,0.0513,0.0463,0.0412,0.0337,0.0274,0.0225,0.0159,0.0124,0.0117,0.0108,0.0109,0.0101,0.0163,0.018,0.0115,0.0115,0.0115,0.0115,0.0115,0.0115,0.0821,0.0754,0.0733,0.0645,0.0611,0.0546,0.0516,0.0474,0.0434,0.0352,0.0301,0.027,0.022,0.0151,0.0092,0.0079,0.0055,0.0047,0.0032,0.0091,0.0097,0.0103,0.0119,0.0042,0.0042,-0.0025,-0.0025,-0.0026]}]]